GEFSSGP_con_cape1000_048.txt.gz
Probability
0 0 0 0 0 0 0 0 0 0 0 0 0 0 0 0 0 0 0 0 19 100 100 100 100 100 100 100 100 100 100 100 100 100 100 100 100 100 100 100 100 100 100 100 100 100 100 100 100
0 0 0 0 0 0 0 0 0 0 0 0 0 0 6 16 3 0 0 16 87 100 100 100 100 100 100 100 100 100 100 100 100 100 100 100 100 100 100 100 100 100 100 100 100 100 100 100 97
0 0 0 0 0 0 0 0 0 0 0 0 0 0 3 32 6 0 10 58 94 100 100 100 100 100 100 100 100 100 100 100 100 100 100 100 100 100 100 100 100 100 100 100 100 97 94 94 94
0 0 0 0 0 0 0 0 0 0 0 0 0 0 0 35 6 3 52 81 97 100 100 100 100 100 100 100 100 100 100 100 100 100 100 100 100 100 100 100 100 100 100 100 94 87 84 81 77
0 0 0 0 0 0 0 0 0 0 0 0 0 0 13 48 23 42 71 87 97 100 100 100 100 100 100 100 100 100 100 100 100 100 100 100 100 100 100 100 100 100 100 94 87 81 68 65 61
0 0 0 0 0 0 0 0 0 0 0 0 0 0 13 29 39 55 71 81 94 97 100 100 100 100 100 100 100 100 100 100 100 100 100 100 100 100 100 100 100 100 100 97 84 71 58 58 58
0 0 0 0 0 0 0 0 0 0 0 0 0 6 29 26 29 45 58 84 94 100 100 100 100 100 100 100 100 100 100 100 100 100 100 100 100 100 100 100 100 100 100 97 90 71 45 45 55
0 0 0 0 0 0 0 0 0 0 0 0 0 6 19 26 16 26 71 94 97 100 100 100 100 100 100 100 100 100 100 100 100 100 100 100 100 100 100 100 100 100 100 100 90 81 71 61 55
0 0 0 0 0 0 0 0 0 0 0 0 0 0 10 23 23 48 81 97 100 100 100 100 100 100 100 100 100 100 100 100 100 100 100 100 100 100 100 100 100 100 100 100 100 87 81 71 58
0 0 0 0 0 0 0 0 0 0 0 0 0 0 42 26 32 42 65 84 90 100 100 100 100 100 100 100 100 100 100 100 100 100 100 100 94 97 100 100 100 100 100 100 100 97 87 68 32
0 0 0 0 0 0 0 0 0 0 0 0 0 26 45 29 35 32 32 42 74 87 100 100 100 100 100 100 100 100 100 100 97 100 100 77 52 71 87 77 94 97 94 84 87 65 52 39 13
0 0 0 0 0 0 0 0 0 0 0 0 0 32 58 52 42 42 26 16 39 65 90 94 100 97 97 97 100 94 90 90 90 90 81 45 23 19 26 13 39 71 74 65 35 23 19 10 0
0 0 0 0 0 0 0 0 0 0 0 0 3 32 61 65 55 52 45 19 23 42 74 94 97 97 90 74 94 84 77 81 68 65 61 29 10 10 3 6 6 26 26 16 10 3 3 0 0
0 0 0 0 0 0 0 0 0 0 0 0 6 23 71 68 74 68 68 32 23 29 55 74 90 84 74 68 68 71 65 58 48 48 48 23 3 0 0 3 0 6 10 10 3 0 0 0 0
0 0 0 0 0 0 0 0 0 0 0 3 3 13 52 58 68 77 84 61 35 26 29 48 65 61 55 42 42 35 39 32 32 26 23 23 3 0 0 0 0 3 3 0 0 0 0 0 0
0 0 0 0 0 0 0 0 0 0 0 0 3 3 16 19 58 71 77 74 52 32 19 32 55 48 35 35 23 19 19 16 16 6 6 6 3 0 0 0 0 3 0 0 0 0 0 0 0
0 0 0 0 0 0 0 0 3 3 0 0 3 3 3 3 3 29 65 68 68 45 29 19 32 32 29 16 10 10 6 6 13 10 13 13 6 3 0 0 0 0 0 0 0 0 0 0 0
0 0 0 0 0 0 0 3 3 3 3 3 6 6 0 0 3 6 16 55 68 48 45 35 32 29 13 6 10 3 3 6 6 6 3 0 0 0 0 0 0 0 0 0 0 0 0 0 0
0 0 0 0 0 0 0 3 6 3 0 3 10 6 0 3 3 10 6 32 55 61 48 42 42 42 23 23 19 16 16 10 3 3 3 3 0 0 0 0 0 0 0 0 0 0 0 0 0
0 0 0 0 0 0 3 6 10 10 13 13 13 13 13 16 16 6 13 29 45 61 55 55 42 42 45 26 19 16 6 6 6 0 0 0 0 0 0 0 0 0 0 0 0 0 0 0 0
0 0 0 0 0 0 0 0 10 23 23 32 26 19 23 23 19 19 19 26 32 48 58 61 58 55 52 35 19 6 3 0 0 0 0 0 0 0 0 0 0 0 0 0 0 0 0 0 0
0 0 0 0 0 0 0 0 10 16 26 23 29 32 29 32 35 19 16 26 39 39 48 55 68 55 48 42 26 19 13 10 0 0 0 0 0 0 0 0 0 0 0 0 0 0 0 0 0
0 0 0 0 0 0 0 0 3 10 23 32 23 16 23 26 32 35 29 35 32 39 42 45 48 42 39 32 26 16 10 0 0 0 0 0 0 0 0 0 0 0 0 0 0 0 0 0 0
0 0 0 0 0 0 0 0 0 19 29 19 19 16 13 16 16 19 23 26 26 48 45 32 23 26 26 19 13 6 3 0 0 0 0 0 0 0 0 0 0 0 0 0 0 0 0 0 0
0 0 0 0 0 0 0 0 6 32 13 13 10 10 6 6 6 10 10 16 19 23 29 16 13 13 10 3 6 6 0 0 0 0 0 0 0 0 0 0 0 0 0 0 0 0 0 0 0
0 0 0 0 0 0 0 3 26 10 13 10 6 3 3 3 3 3 3 6 6 3 3 0 6 3 3 0 0 0 0 0 0 0 0 0 0 0 0 0 0 0 0 0 0 0 0 0 0
0 0 0 0 0 0 0 3 19 13 6 6 6 0 0 0 0 0 0 0 0 0 0 0 0 0 0 0 0 0 0 0 0 0 0 0 0 0 0 0 0 0 0 0 0 0 0 0 0
0 0 0 0 0 0 0 0 0 6 6 6 3 0 0 0 0 0 0 0 0 0 0 0 0 0 0 0 0 0 0 0 0 0 0 0 0 0 0 0 0 0 0 0 0 0 0 0 0
0 0 0 0 0 0 0 0 0 0 6 6 0 0 0 0 0 0 0 0 0 0 0 0 0 0 0 0 0 0 0 0 0 0 0 0 0 0 0 0 0 0 0 0 0 0 0 0 0
0 0 0 0 0 0 0 0 0 0 3 0 0 0 0 0 0 0 0 0 0 0 0 0 0 0 0 0 0 0 0 0 0 0 0 0 0 0 0 0 0 0 0 0 0 0 0 0 0

GEFSSGP_con_cape1000_054.txt.gz
Probability
0 0 0 0 0 0 0 0 0 0 0 0 0 0 0 0 0 26 90 87 100 97 97 100 100 100 100 100 100 100 100 100 100 100 100 100 100 100 100 100 100 100 100 100 100 100 100 100 100
0 0 0 0 0 0 0 0 0 0 0 0 0 0 0 3 48 81 90 94 100 94 94 97 100 100 100 100 100 100 100 100 100 100 100 100 100 100 100 100 100 100 100 100 100 100 100 100 100
0 0 0 0 0 0 0 0 0 0 0 0 0 0 3 45 61 90 94 100 100 94 87 100 100 100 100 100 100 100 100 100 100 100 100 100 100 100 100 100 100 100 100 100 100 100 100 100 97
0 0 0 0 0 0 0 0 0 0 0 0 0 0 26 81 74 90 97 100 100 97 90 100 100 100 100 100 100 100 100 100 100 100 100 100 100 100 100 100 100 100 100 100 97 94 94 94 90
0 0 0 0 0 0 0 0 0 0 0 0 0 0 45 94 90 94 97 97 100 97 94 100 100 100 100 100 100 100 100 100 100 100 100 100 100 100 100 100 100 100 100 100 87 84 84 81 77
0 0 0 0 0 0 0 0 0 0 0 0 0 0 61 100 100 90 94 97 100 100 94 100 100 100 100 100 100 100 100 100 100 100 100 100 100 100 100 100 100 100 97 90 74 58 55 58 61
0 0 0 0 0 0 0 0 0 0 0 0 0 6 68 94 100 97 94 94 94 100 97 100 100 100 100 100 100 100 100 100 100 100 100 100 100 100 100 100 100 100 97 94 71 52 29 32 29
0 0 0 0 0 0 0 0 0 0 0 0 3 6 48 87 100 97 97 87 90 100 100 100 100 100 100 100 100 100 100 100 100 100 100 100 100 100 100 100 100 100 100 90 77 65 48 35 39
0 0 0 0 0 0 0 0 0 0 0 0 3 6 48 87 100 100 100 97 97 97 100 100 100 100 100 100 100 100 100 100 100 100 100 100 100 94 100 97 100 100 100 97 90 81 65 45 42
0 0 0 0 0 0 0 0 0 0 0 0 0 26 61 90 97 100 100 100 100 100 100 100 100 100 100 100 100 100 100 100 100 100 100 100 97 97 55 100 100 100 100 97 97 87 81 48 35
0 0 0 0 0 0 0 0 0 0 0 0 0 13 71 90 97 100 100 100 100 100 100 100 100 100 100 100 100 100 100 100 100 100 100 100 100 94 68 94 100 100 100 94 94 84 65 42 29
0 0 0 0 0 0 0 0 0 0 0 0 0 10 65 77 87 97 94 97 100 100 100 100 100 100 100 100 100 100 100 100 100 100 100 100 100 100 90 97 71 97 100 97 90 81 58 58 39
0 0 0 0 0 0 0 0 0 0 0 0 0 19 32 68 84 97 90 90 100 100 100 100 100 100 100 100 100 100 100 100 100 100 100 100 97 94 90 97 100 90 87 97 97 74 71 61 42
0 0 0 0 0 0 0 0 0 0 0 3 6 19 32 55 77 87 97 100 100 100 100 100 100 100 100 100 100 100 100 100 100 100 100 97 90 94 97 100 100 94 94 81 84 81 90 68 55
0 0 0 0 0 0 0 0 0 0 0 3 6 19 32 55 71 87 97 100 100 100 100 100 100 100 100 100 100 100 100 100 100 100 100 100 94 97 100 97 97 100 94 97 87 87 74 58 55
0 0 0 0 0 0 0 0 0 0 0 3 10 26 39 58 68 87 97 100 100 100 100 100 100 100 100 100 100 100 100 100 100 100 100 100 100 97 100 100 100 100 97 90 90 81 74 52 52
0 0 0 0 0 0 0 0 0 0 0 6 16 26 45 65 77 90 97 100 100 100 100 100 100 100 100 100 100 100 100 100 100 100 100 100 100 100 100 97 100 97 94 90 68 58 61 55 42
0 0 0 0 0 0 0 0 3 0 3 10 16 29 45 74 84 90 94 100 100 100 100 100 100 100 100 100 100 100 100 100 100 97 97 94 97 90 87 84 84 87 74 77 65 61 45 35 32
0 0 0 0 0 0 0 6 13 10 13 29 29 39 55 61 71 84 90 100 100 100 100 100 100 100 100 100 97 97 97 90 90 87 84 84 84 77 81 74 71 68 61 61 32 32 19 13 13
0 0 0 0 0 3 6 19 29 35 39 35 45 52 58 61 71 74 77 87 100 97 100 100 100 100 100 97 97 97 90 84 74 55 52 55 58 61 61 61 55 52 48 32 23 19 13 6 3
0 0 0 0 0 0 3 13 32 45 61 48 55 55 61 68 71 77 84 84 90 94 100 100 97 97 90 94 90 87 84 65 52 32 32 29 29 32 39 39 35 32 32 13 16 13 10 3 0
0 0 0 0 0 0 0 0 32 35 55 55 61 55 48 52 58 61 65 74 77 87 94 97 94 90 90 87 87 81 71 52 39 29 26 16 16 16 23 19 26 16 10 6 3 3 3 0 0
0 0 0 0 0 0 0 0 23 29 39 42 48 52 52 42 35 45 55 58 65 74 77 84 81 81 87 84 84 71 55 39 23 16 10 6 0 0 0 0 0 3 0 0 0 0 0 0 0
0 0 0 0 0 0 0 0 23 42 55 45 45 35 29 29 29 35 35 35 42 48 58 65 65 65 65 74 65 55 39 19 13 13 6 0 0 0 0 0 0 0 0 0 0 0 0 0 0
0 0 0 0 0 0 0 0 45 52 45 39 23 16 19 16 19 13 10 16 23 29 35 45 48 42 42 32 32 35 23 23 19 6 3 0 0 0 0 0 0 0 0 0 0 0 0 0 0
0 0 0 0 0 0 0 0 52 42 29 19 13 6 6 3 3 6 6 6 10 10 6 19 23 26 13 13 6 6 10 3 3 0 0 0 0 0 0 0 0 0 0 0 0 0 0 0 0
0 0 0 0 0 0 0 35 42 32 16 13 6 3 3 0 0 0 0 0 0 3 3 0 0 0 3 3 3 3 0 0 0 0 0 0 0 0 0 0 0 0 0 0 0 0 0 0 0
0 0 0 0 0 0 0 0 35 35 23 13 6 3 0 0 0 0 0 0 0 0 0 0 0 0 0 0 0 0 0 0 0 0 0 0 0 0 0 0 0 0 0 0 0 0 0 0 0
0 0 0 0 0 0 0 3 19 42 35 16 3 0 0 0 0 0 0 0 0 0 0 0 0 0 0 0 0 0 0 0 0 0 0 0 0 0 0 0 0 0 0 0 0 0 0 0 0
0 0 0 0 0 0 0 32 39 52 35 13 0 0 0 0 0 0 0 0 0 0 0 0 0 0 0 0 0 0 0 0 0 0 0 0 0 0 0 0 0 0 0 0 0 0 0 0 0

GEFSSGP_con_cape1000_060.txt.gz
Probability
0 0 0 0 0 0 0 0 0 0 0 0 0 0 3 6 32 65 77 84 100 100 100 100 100 100 100 100 100 100 100 100 100 100 100 100 100 100 100 100 100 100 100 100 100 100 100 100 100
0 0 0 0 0 0 0 0 0 0 0 0 0 0 6 23 29 55 81 100 100 100 100 100 100 100 100 100 100 100 100 100 100 100 100 100 100 100 100 100 100 100 100 100 100 100 100 100 100
0 0 0 0 0 0 0 0 0 0 0 0 0 0 10 29 35 74 94 100 100 100 100 100 100 100 100 100 100 100 100 100 100 100 100 100 100 100 100 100 100 100 100 100 100 100 100 100 100
0 0 0 0 0 0 0 0 0 0 0 0 0 0 39 29 42 77 87 100 100 100 100 100 100 100 100 100 100 100 100 100 100 100 100 100 100 100 100 100 100 100 100 100 100 97 94 94 94
0 0 0 0 0 0 0 0 0 0 0 0 3 23 65 45 65 87 94 97 100 100 100 100 100 100 100 100 100 100 100 100 100 100 100 100 100 100 100 100 100 100 97 90 87 87 90 90 87
0 0 0 0 0 0 0 0 0 0 0 0 0 23 65 61 81 87 87 97 97 100 100 100 100 100 100 100 100 100 100 100 100 100 100 100 100 100 100 100 100 97 94 84 65 61 61 68 71
0 0 0 0 0 0 0 0 0 0 0 0 0 29 65 81 84 90 87 94 97 100 100 100 100 100 100 100 100 100 100 100 100 100 100 100 100 100 100 100 100 94 84 65 45 39 35 35 32
0 0 0 0 0 0 0 0 0 0 0 0 0 19 65 84 90 94 94 94 94 100 100 100 100 100 100 100 100 100 100 100 100 100 100 100 100 100 100 100 100 94 77 61 48 35 13 19 26
0 0 0 0 0 0 0 0 0 0 0 0 3 45 55 81 90 94 97 94 100 100 100 100 100 100 100 100 100 100 100 100 100 100 100 100 100 100 100 97 100 94 84 74 61 55 48 48 45
0 0 0 0 0 0 0 0 0 0 0 0 10 48 68 87 94 94 94 97 100 100 97 97 100 100 97 94 100 100 97 100 100 100 100 100 100 100 90 100 100 100 100 97 87 81 74 52 32
0 0 0 0 0 0 0 0 0 0 0 0 10 39 61 81 90 94 94 94 100 100 100 97 100 100 100 100 100 100 100 100 100 100 100 100 100 100 100 94 100 100 100 100 100 84 68 35 42
0 0 0 0 0 0 0 0 0 0 0 0 6 23 55 74 87 94 94 94 97 100 100 97 100 100 100 100 100 100 100 100 100 100 100 100 100 100 100 100 100 100 100 100 100 97 74 81 74
0 0 0 0 0 0 0 0 0 0 0 0 3 13 42 58 74 81 97 94 94 97 100 100 100 100 100 100 100 100 100 100 100 100 100 100 100 100 100 100 100 100 100 97 100 97 90 77 68
0 0 0 0 0 0 0 0 0 0 0 0 0 6 16 32 61 77 94 97 97 97 97 100 100 100 100 100 100 100 100 97 100 100 100 100 100 100 100 100 100 100 100 97 97 94 97 90 90
0 0 0 0 0 0 0 0 0 0 0 0 0 3 6 19 39 71 84 97 97 97 97 100 100 100 100 100 100 100 100 100 100 100 100 100 100 100 100 100 100 100 97 97 97 90 94 81 81
0 0 0 0 0 0 0 0 0 0 0 0 0 0 13 23 29 55 77 94 97 97 100 100 100 100 100 100 100 100 100 97 100 100 100 100 100 100 100 100 97 97 97 94 90 87 90 74 71
0 0 0 0 0 0 0 0 0 0 0 0 0 3 13 23 29 52 68 90 100 100 100 100 100 100 100 100 100 100 100 100 100 100 100 97 100 100 100 97 97 97 94 94 90 84 84 71 58
0 0 0 0 0 0 0 0 3 3 10 10 13 19 23 29 39 71 77 84 100 100 100 100 100 100 100 100 100 100 100 100 100 100 100 100 97 97 97 94 90 90 90 90 84 77 65 55 48
0 0 0 0 0 0 0 6 16 16 23 26 29 39 39 45 61 77 77 87 100 100 100 100 100 100 100 100 100 100 97 90 87 81 77 84 84 84 77 77 77 77 74 58 58 48 39 29 23
0 0 0 0 0 0 3 19 26 32 35 39 39 45 45 58 74 84 81 87 94 100 100 100 100 100 100 100 100 97 90 84 77 61 65 55 55 58 61 61 58 55 45 45 42 32 26 16 13
0 0 0 0 0 0 10 23 35 45 42 39 32 42 39 42 55 65 68 71 77 87 90 100 100 97 97 94 94 94 84 77 55 48 35 32 29 26 26 23 29 26 26 29 26 23 13 10 3
0 0 0 0 0 0 0 3 39 55 48 42 48 45 39 45 45 45 61 61 65 61 77 74 77 81 87 87 87 81 74 68 42 29 19 19 13 10 10 13 10 13 16 10 13 13 3 3 3
0 0 0 0 0 0 0 0 19 42 45 48 55 55 45 45 48 39 48 48 48 55 58 58 61 65 71 81 77 77 58 42 29 19 16 13 10 10 10 10 6 6 3 3 6 0 0 0 0
0 0 0 0 0 0 0 0 19 23 29 52 55 48 29 29 19 16 19 19 29 32 45 45 52 52 55 58 61 55 39 29 19 16 13 10 3 3 0 0 0 0 0 0 0 0 0 0 0
0 0 0 0 0 0 0 0 26 39 39 48 35 23 19 13 13 13 13 16 16 16 19 29 29 39 42 42 35 26 13 6 6 6 3 0 0 0 0 0 0 0 0 0 0 0 0 0 0
0 0 0 0 0 0 0 3 58 42 39 39 13 3 3 3 3 3 3 6 6 6 10 13 16 19 16 16 16 10 10 3 3 3 0 0 0 0 0 0 0 0 0 0 0 0 0 0 0
0 0 0 0 0 0 0 45 42 42 26 13 3 3 3 3 3 0 0 0 0 0 3 3 3 3 3 0 0 0 3 3 3 0 0 0 0 0 0 0 0 0 0 0 0 0 0 0 0
0 0 0 0 0 0 0 3 32 29 19 3 3 3 3 0 0 0 0 0 0 0 0 0 0 0 0 0 0 0 0 0 0 0 0 0 0 0 0 0 0 0 0 0 0 0 0 0 0
0 0 0 0 0 0 0 0 10 32 13 3 3 3 0 0 0 0 0 0 0 0 0 0 0 0 0 0 0 0 0 0 0 0 0 0 0 0 0 0 0 0 0 0 0 0 0 0 0
0 0 0 0 0 0 0 10 13 23 10 3 3 0 0 0 0 0 0 0 0 0 0 0 0 0 0 0 0 0 0 0 0 0 0 0 0 0 0 0 0 0 0 0 0 0 0 0 0

GEFSSGP_con_cape1000_066.txt.gz
Probability
0 0 0 0 0 0 0 0 0 0 0 0 0 0 3 13 10 16 35 68 81 97 100 100 100 100 100 100 100 100 100 100 100 100 100 100 100 100 100 100 100 100 100 100 100 100 100 100 100
0 0 0 0 0 0 0 0 0 0 0 0 0 3 6 29 61 74 65 74 84 94 100 100 100 100 100 100 100 100 100 100 100 100 100 100 100 100 100 100 100 100 100 100 100 100 100 100 100
0 0 0 0 0 0 0 0 0 0 0 0 0 0 10 48 65 71 74 84 87 94 100 100 100 100 100 100 100 100 100 100 100 100 100 100 100 100 100 100 100 100 100 100 100 100 100 100 100
0 0 0 0 0 0 0 0 0 0 0 0 6 10 19 45 77 77 87 94 90 94 100 100 100 100 100 100 100 100 100 100 100 100 100 100 100 100 100 100 100 100 100 100 97 94 94 94 94
0 0 0 0 0 0 0 0 0 0 0 0 3 19 35 58 77 84 94 90 90 87 100 100 100 100 100 100 100 100 100 100 100 100 100 100 100 100 100 100 100 97 94 90 87 94 94 90 90
0 0 0 0 0 0 0 0 0 0 0 3 13 23 39 65 84 84 90 90 87 100 100 100 100 100 100 100 100 100 100 100 100 100 100 100 100 100 100 100 100 94 90 81 77 74 77 74 65
0 0 0 0 0 0 0 0 0 0 0 0 13 32 32 61 68 81 87 94 97 100 100 100 100 100 100 100 100 100 100 100 100 100 100 100 100 100 100 100 100 94 94 77 61 58 65 65 42
0 0 0 0 0 0 0 0 0 0 0 0 6 23 26 48 65 81 90 100 100 100 100 100 100 100 100 100 100 100 100 100 100 100 100 100 100 100 100 100 97 97 90 77 65 65 55 55 45
0 0 0 0 0 0 0 0 0 0 0 0 3 16 29 48 58 81 94 97 97 100 100 100 100 100 100 100 100 100 100 100 100 100 100 100 100 100 100 100 97 97 94 81 81 74 74 61 61
0 0 0 0 0 0 0 0 0 0 0 0 10 16 26 42 52 87 94 97 97 97 94 97 100 100 100 100 100 100 100 100 100 100 100 100 68 68 87 100 100 97 97 94 84 77 77 61 16
0 0 0 0 0 0 0 0 0 0 0 0 10 23 39 48 52 81 94 97 94 94 94 94 94 94 90 97 100 97 94 87 81 87 87 26 13 16 42 45 97 97 97 74 74 90 68 26 6
0 0 0 0 0 0 0 0 0 0 0 3 10 16 32 48 55 68 84 97 94 90 87 94 90 90 90 87 87 84 71 61 52 45 39 0 0 3 3 23 52 48 45 29 0 16 19 13 0
0 0 0 0 0 0 0 0 0 0 3 6 10 26 35 45 52 71 81 90 90 84 81 81 84 74 81 81 77 74 52 45 19 19 19 0 0 0 3 10 16 19 6 3 0 0 3 6 0
0 0 0 0 0 0 0 0 0 0 3 6 19 19 29 42 58 65 81 97 94 81 84 84 81 74 74 71 58 52 39 29 10 26 32 13 6 3 6 6 6 3 0 0 0 3 3 0 0
0 0 0 0 0 0 0 0 0 0 3 3 3 16 26 32 45 61 77 81 87 74 77 84 81 68 65 74 58 52 45 35 29 35 48 45 32 23 16 19 19 10 0 0 0 0 0 0 3
0 0 0 0 0 0 0 0 3 3 0 3 3 6 16 23 19 45 61 77 71 71 68 81 84 84 74 71 68 74 71 61 48 52 58 74 55 42 23 19 16 3 3 0 0 0 0 3 0
0 0 0 0 0 0 0 3 6 3 6 6 6 13 16 19 23 45 45 68 81 58 65 74 77 87 81 74 74 77 77 65 58 58 68 71 61 55 42 29 19 3 0 0 0 0 0 0 0
0 0 0 0 0 0 3 6 16 16 13 13 13 13 10 23 26 42 48 61 77 71 68 81 81 84 84 81 71 68 61 58 55 55 52 55 55 48 35 23 26 13 3 3 0 0 0 0 0
0 0 0 0 0 3 3 6 10 19 13 13 13 13 16 19 26 42 42 52 58 61 68 71 81 81 77 77 71 61 58 52 42 29 32 32 26 29 26 29 10 6 3 3 0 0 0 0 0
0 0 0 0 3 10 6 6 23 23 19 16 19 19 29 23 29 39 42 35 39 39 48 61 74 74 71 68 55 45 45 32 23 23 16 19 16 13 16 13 6 3 3 3 0 0 0 0 0
0 0 0 0 6 13 3 3 29 39 35 32 26 32 29 19 16 23 19 19 26 29 35 45 42 52 61 55 39 45 35 26 19 13 13 6 6 6 10 10 3 3 3 3 0 0 0 0 0
0 0 0 0 0 0 0 0 23 42 35 29 26 26 19 13 6 3 3 6 13 19 19 23 23 32 45 48 45 39 32 26 13 10 3 3 3 3 3 3 0 3 3 3 3 0 0 0 0
0 0 0 0 0 0 0 0 13 26 29 29 19 6 3 0 0 3 3 3 3 3 10 19 19 23 23 26 35 29 26 6 6 3 3 3 3 3 3 3 0 0 0 0 0 0 0 0 0
0 0 0 0 0 0 0 0 6 23 29 23 6 6 3 3 3 3 3 3 3 3 3 6 16 16 19 16 16 13 6 6 6 3 3 3 3 3 0 0 0 0 0 0 0 0 0 0 0
0 0 0 0 0 0 0 0 6 13 23 6 3 3 3 3 3 3 3 3 3 6 6 3 6 10 10 10 10 10 6 3 3 3 3 3 3 0 0 0 0 0 0 0 0 0 0 0 0
0 0 0 0 0 0 0 0 16 13 10 3 3 3 3 0 0 0 0 3 3 3 6 3 3 6 3 6 6 3 3 3 3 3 3 3 0 0 0 0 0 0 0 0 0 0 0 0 0
0 0 0 0 0 0 0 16 29 10 10 6 3 0 0 0 0 0 0 0 0 0 0 3 3 3 3 3 0 0 0 0 0 0 0 0 0 0 0 0 0 0 0 0 0 0 0 0 0
0 0 0 0 0 0 0 0 6 13 6 3 0 0 0 0 0 0 0 0 0 0 0 0 0 0 0 0 0 0 0 0 0 0 0 0 0 0 0 0 0 0 0 0 0 0 0 0 0
0 0 0 0 0 0 0 0 0 3 6 0 0 0 0 0 0 0 0 0 0 0 0 0 0 0 0 0 0 0 0 0 0 0 0 0 0 0 0 0 0 0 0 0 0 0 0 0 0
0 0 0 0 0 0 0 0 0 6 0 0 0 0 0 0 0 0 0 0 0 0 0 0 0 0 0 0 0 0 0 0 0 0 0 0 0 0 0 0 0 0 0 0 0 0 0 0 0

GEFSSGP_con_cape1000_072.txt.gz
Probability
0 0 0 0 0 0 0 0 0 0 0 0 0 0 0 0 6 0 3 52 77 94 100 100 100 100 100 100 100 100 100 100 100 100 100 100 100 100 100 100 100 100 100 100 100 100 100 100 100
0 0 0 0 0 0 0 0 0 0 0 0 0 0 6 16 23 32 58 68 90 97 100 100 100 100 100 100 100 100 100 100 100 100 100 100 100 100 100 100 100 100 100 100 100 100 100 100 100
0 0 0 0 0 0 0 0 0 0 0 3 6 10 16 23 32 48 61 81 97 100 100 100 100 100 100 100 100 100 100 100 100 100 100 100 100 100 100 100 100 100 100 100 100 100 100 100 100
0 0 0 0 0 0 0 0 0 0 0 3 6 13 23 29 39 68 74 84 94 100 100 100 100 100 100 100 100 100 100 100 100 100 100 100 100 100 100 100 100 100 100 100 97 97 97 97 97
0 0 0 0 0 0 0 0 0 0 0 3 13 16 26 42 48 68 74 87 87 94 94 100 100 100 100 100 100 100 100 100 100 100 100 100 100 100 100 100 100 97 97 97 97 97 97 94 94
0 0 0 0 0 0 0 0 0 0 3 10 10 19 26 42 48 71 81 74 87 90 100 100 100 100 100 100 100 100 100 100 100 100 100 100 100 100 100 100 97 94 87 87 84 87 84 84 84
0 0 0 0 0 0 0 0 0 0 0 6 6 16 35 48 55 71 68 68 81 94 100 100 100 100 100 100 100 100 100 100 100 100 100 100 100 100 100 100 97 90 90 81 77 74 74 71 65
0 0 0 0 0 0 0 0 0 0 0 3 13 26 26 39 68 68 74 84 94 97 100 100 100 100 100 100 100 100 100 100 100 100 100 100 100 100 97 100 97 90 81 74 68 65 55 58 45
0 0 0 0 0 0 0 0 0 0 0 0 3 13 26 52 68 68 71 84 94 97 100 100 100 100 100 100 100 100 100 100 100 100 100 100 97 97 97 97 94 90 90 77 74 65 58 55 52
0 0 0 0 0 0 0 0 0 0 0 0 0 16 52 58 65 68 71 74 87 94 97 100 100 97 100 100 100 100 100 100 100 100 100 94 87 87 94 90 94 94 94 90 84 81 65 55 10
0 0 0 0 0 0 0 0 0 0 0 0 0 16 48 55 55 65 68 74 81 87 97 100 100 97 97 100 100 100 100 100 100 97 97 65 45 55 68 48 77 87 90 71 68 61 52 29 10
0 0 0 0 0 0 0 0 0 0 0 0 0 19 52 65 61 58 68 77 87 90 90 100 100 100 97 97 100 100 100 90 84 84 71 39 23 19 16 10 35 65 55 48 23 19 13 3 0
0 0 0 0 0 0 0 0 0 0 0 0 13 16 42 52 65 55 68 81 87 87 90 90 100 100 97 94 100 94 87 84 77 61 52 26 13 6 6 0 0 23 29 19 6 0 0 3 3
0 0 0 0 0 0 0 0 0 0 0 0 13 23 32 48 52 58 68 81 84 81 87 94 100 100 94 90 87 81 74 68 58 42 42 19 6 3 0 0 0 6 13 10 3 0 0 0 0
0 0 0 0 0 0 0 0 0 0 0 6 16 26 32 39 45 58 68 71 81 77 84 87 87 87 81 74 71 71 68 55 48 42 32 16 6 0 0 0 0 3 3 3 3 0 0 0 0
0 0 0 0 0 0 0 0 0 0 3 6 6 23 23 29 39 45 55 65 74 77 74 84 87 68 58 68 61 55 45 35 32 13 13 16 6 0 0 0 0 0 3 3 0 0 0 0 0
0 0 0 0 0 0 0 0 6 6 6 6 10 13 26 23 29 32 52 55 61 68 74 71 68 61 55 55 48 39 35 23 19 10 10 13 16 13 6 0 0 0 0 0 0 0 0 0 0
0 0 0 0 0 0 0 0 6 10 16 16 16 10 16 19 29 35 39 48 48 58 58 61 61 55 48 55 32 26 19 16 10 6 6 13 16 16 6 0 0 0 0 0 0 0 0 0 0
0 0 3 3 0 0 0 6 10 16 13 10 10 13 16 19 23 26 32 39 45 42 42 52 42 42 39 39 23 29 19 10 3 3 0 0 3 10 3 3 0 0 0 0 0 0 0 0 0
0 0 3 0 0 0 0 6 23 26 16 16 16 16 23 16 19 23 23 29 39 39 32 39 35 32 32 32 23 13 10 3 6 3 3 0 3 3 3 0 3 0 0 0 0 0 0 0 0
0 0 0 3 0 0 0 10 19 23 26 19 13 10 13 13 19 19 26 26 26 23 19 19 23 23 26 26 16 6 0 0 3 3 3 3 3 3 3 3 3 0 0 0 0 0 0 0 0
0 0 0 0 0 0 0 0 13 19 26 23 19 16 16 19 13 16 19 16 10 13 10 16 19 23 13 16 13 16 10 6 3 3 3 3 3 6 3 3 0 0 0 0 0 0 0 0 0
0 0 0 0 0 0 0 0 3 23 23 29 19 13 10 10 6 10 6 6 0 3 10 16 16 13 10 10 16 16 6 6 3 3 3 3 3 3 3 3 0 0 0 0 0 0 0 0 0
0 0 0 0 0 0 0 0 0 13 23 23 3 3 3 3 3 6 0 0 0 3 3 10 19 10 6 10 10 6 6 6 3 3 3 0 0 0 0 0 0 0 0 0 0 0 0 0 0
0 0 0 0 0 0 0 0 3 26 16 10 3 6 3 3 3 0 0 0 0 3 3 6 6 3 3 6 3 3 3 6 6 0 3 0 0 0 0 0 0 0 0 0 0 0 0 0 0
0 0 0 0 0 0 0 0 16 23 3 3 6 3 0 0 0 0 0 0 0 3 3 3 6 3 0 3 3 0 0 3 0 0 0 0 0 0 0 0 0 0 0 0 0 0 0 0 0
0 0 0 0 0 0 0 3 16 23 6 6 6 0 0 0 0 0 0 0 0 0 0 0 0 0 0 0 0 0 0 0 0 0 0 0 0 0 0 0 0 0 0 0 0 0 0 0 0
0 0 0 0 0 0 0 0 0 10 6 6 0 0 0 0 0 0 0 0 0 0 0 0 0 0 0 0 0 0 0 0 0 0 0 0 0 0 0 0 0 0 0 0 0 0 0 0 0
0 0 0 0 0 0 0 0 0 3 3 6 0 0 0 0 0 0 0 0 0 0 0 0 0 0 0 0 0 0 0 0 0 0 0 0 0 0 0 0 0 0 0 0 0 0 0 0 0
0 0 0 0 0 0 0 0 3 3 3 0 0 0 0 0 0 0 0 0 0 0 0 0 0 0 0 0 0 0 0 0 0 0 0 0 0 0 0 0 0 0 0 0 0 0 0 0 0

GEFSSGP_con_cape1000_078.txt.gz
Probability
0 0 0 0 0 0 0 0 0 0 0 0 0 0 0 3 3 35 84 90 84 87 97 100 100 100 100 100 100 100 100 100 100 100 100 100 100 100 100 100 100 100 100 100 100 100 100 100 100
0 0 0 0 0 0 0 0 0 0 0 0 3 3 0 23 29 55 84 97 90 90 97 100 100 100 100 100 100 100 100 100 100 100 100 100 100 100 100 100 100 100 100 100 100 100 100 100 100
0 0 0 0 0 0 0 0 0 0 0 6 3 0 13 32 42 81 94 97 94 94 94 100 100 100 100 100 100 100 100 100 100 100 100 100 100 100 100 100 100 100 100 97 97 97 100 100 100
0 0 0 0 0 0 0 0 0 0 0 3 3 10 32 45 65 84 94 97 90 87 90 100 100 100 100 100 100 100 100 100 100 100 100 100 100 100 100 100 100 100 100 100 94 97 97 97 97
0 0 0 0 0 0 0 0 0 0 0 0 3 10 29 55 71 87 94 100 87 87 94 100 100 100 100 100 100 100 100 100 100 100 100 100 100 100 100 100 100 100 97 97 97 94 94 97 97
0 0 0 0 0 0 0 0 0 0 0 0 3 6 26 65 81 90 97 97 90 94 97 100 100 100 100 100 100 100 100 100 100 100 100 100 100 100 100 100 100 97 97 97 94 87 81 81 84
0 0 0 0 0 0 0 0 0 0 0 0 6 13 39 65 87 90 97 97 90 90 97 100 100 100 100 100 100 100 100 100 100 100 100 100 100 100 100 97 97 90 87 84 84 81 81 74 68
0 0 0 0 0 0 0 0 0 0 0 6 6 6 26 77 94 94 100 94 94 90 100 100 100 100 100 100 100 100 100 100 100 100 100 100 100 97 97 97 94 90 87 84 84 81 77 61 52
0 0 0 0 0 0 0 0 0 0 0 3 6 10 35 74 90 100 100 94 94 94 100 100 100 100 100 100 100 100 100 100 100 100 100 100 94 77 90 81 94 84 81 81 71 68 65 55 42
0 0 0 0 0 0 0 0 0 0 0 3 10 16 42 74 84 100 100 100 97 94 97 97 97 100 100 94 100 100 100 100 100 97 97 97 90 84 52 81 97 90 84 81 68 58 45 35 35
0 0 0 0 0 0 0 0 0 0 0 0 3 10 29 55 81 90 100 97 94 94 94 87 94 97 100 100 100 100 100 97 97 100 100 97 97 94 65 87 90 97 90 77 90 61 39 16 23
0 0 0 0 0 0 0 0 0 0 0 0 0 3 19 45 68 74 90 90 94 90 90 87 87 97 100 97 90 90 97 100 97 100 97 100 97 94 77 90 65 87 84 74 52 52 29 32 32
0 0 0 0 0 0 0 0 0 0 0 3 3 3 23 29 58 71 84 87 94 94 90 90 90 94 97 100 100 97 97 100 97 100 100 100 100 100 90 97 97 74 74 84 84 55 55 48 32
0 0 0 0 0 0 0 0 0 0 0 3 3 6 19 32 45 71 87 90 97 97 97 97 90 94 94 97 97 97 97 97 94 97 97 94 100 100 100 100 100 90 84 74 77 71 77 77 71
0 0 0 0 0 0 0 0 0 0 0 3 10 16 23 45 55 68 87 100 94 100 100 97 90 90 94 94 97 97 94 100 97 94 94 97 100 100 100 100 100 100 94 94 94 87 84 84 71
0 0 0 0 0 0 0 0 3 0 0 6 13 16 26 42 48 55 71 90 90 97 94 87 84 84 87 94 90 90 90 94 94 87 94 97 100 100 100 97 97 97 97 97 97 94 84 90 74
0 0 0 0 0 0 0 0 6 6 6 10 10 16 23 42 48 61 68 71 94 90 90 84 84 87 84 81 84 84 90 90 84 84 84 87 94 94 97 97 97 97 94 90 84 81 74 71 61
0 0 0 3 0 0 0 0 6 10 10 10 16 16 26 23 35 45 52 61 65 71 84 84 81 84 84 77 81 84 84 87 81 74 81 84 77 81 84 84 90 84 81 81 84 84 74 61 58
0 0 0 3 0 0 0 6 10 13 16 13 16 19 26 23 26 39 55 58 61 71 68 74 77 77 77 77 84 84 77 58 55 52 52 58 61 68 71 68 77 71 74 74 61 55 48 35 32
0 0 0 0 0 0 0 6 16 26 32 29 23 16 13 19 26 42 48 61 65 58 68 71 74 65 65 68 77 74 58 52 45 42 35 39 42 48 45 48 48 48 48 39 39 39 29 26 23
0 0 0 0 0 0 0 3 19 32 32 23 23 19 29 26 19 35 35 42 55 55 55 58 61 61 68 61 61 52 42 39 29 29 26 23 19 26 29 26 29 29 29 29 23 32 23 19 16
0 0 0 0 0 0 0 0 6 32 39 32 32 23 26 23 26 29 35 39 42 42 45 58 58 61 61 58 48 39 35 29 26 13 10 6 10 6 6 6 10 16 10 16 10 10 13 19 13
0 0 0 0 0 0 0 0 0 32 26 39 42 35 29 32 32 26 32 32 39 39 35 39 48 55 55 61 52 45 32 26 13 10 6 6 6 6 6 6 6 6 6 6 6 6 6 6 10
0 0 0 0 0 0 0 0 3 19 23 52 48 32 29 26 26 29 29 26 26 32 32 35 39 35 45 48 52 42 26 13 10 6 6 6 6 6 6 6 6 6 6 6 6 6 6 3 3
0 0 0 0 0 0 0 0 3 39 48 45 35 26 26 23 26 19 23 19 23 23 26 19 19 26 29 26 23 23 10 6 10 10 6 6 6 6 6 6 6 6 3 0 0 3 0 0 0
0 0 0 0 0 0 0 0 35 48 42 39 39 29 16 16 10 6 13 16 6 6 16 13 13 16 16 13 13 13 10 6 6 6 3 0 3 0 0 0 0 0 0 0 0 0 0 0 0
0 0 0 0 0 0 0 6 45 48 39 39 32 23 16 13 3 6 3 3 6 6 10 10 13 13 6 6 3 3 3 3 3 3 0 0 0 0 0 0 0 0 0 0 0 0 0 0 0
0 0 0 0 0 0 0 0 3 35 35 23 19 19 13 6 3 0 0 0 3 3 3 6 6 6 6 3 0 0 0 3 0 0 0 0 0 0 0 0 0 0 0 0 0 0 0 0 0
0 0 0 0 0 0 0 0 10 32 39 19 13 13 6 3 3 3 0 0 0 3 3 3 3 3 0 0 0 0 0 0 0 0 0 0 0 0 0 0 0 0 0 0 0 0 0 0 0
0 0 0 0 0 0 0 0 19 32 26 19 13 10 10 3 3 0 0 0 0 0 0 3 3 0 0 0 0 0 0 0 0 0 0 0 0 0 0 0 0 0 0 0 0 0 0 0 0

GEFSSGP_con_cape1000_084.txt.gz
Probability
0 0 0 0 0 0 0 0 0 0 0 0 0 0 3 3 26 68 74 71 97 100 100 100 100 100 100 100 100 100 100 100 100 100 100 100 100 100 100 100 100 100 100 100 100 100 100 100 100
0 0 0 0 0 0 0 0 0 0 0 0 0 0 3 23 39 68 77 94 100 100 100 100 100 100 100 100 100 100 100 100 100 100 100 100 100 100 100 100 100 97 97 100 100 100 100 100 100
0 0 0 0 0 0 0 0 0 0 0 0 0 0 13 35 45 71 97 90 100 100 100 100 100 100 100 100 100 100 100 100 100 100 100 100 100 100 100 100 97 97 97 100 100 100 100 100 100
0 0 0 0 0 0 0 0 0 0 0 0 0 0 19 32 48 90 100 87 100 100 100 100 100 100 100 100 100 100 100 100 100 100 100 100 100 100 100 100 97 97 97 94 97 97 97 97 97
0 0 0 0 0 0 0 0 0 0 0 0 0 13 29 29 74 90 97 97 97 100 100 100 100 100 100 100 100 100 100 100 100 100 100 100 100 100 100 100 100 97 94 97 94 94 94 97 94
0 0 0 0 0 0 0 0 0 0 0 0 0 16 39 45 81 90 94 97 94 100 100 100 100 100 100 100 100 100 100 100 100 100 100 100 100 100 100 100 100 97 97 97 94 87 84 87 84
0 0 0 0 0 0 0 0 0 0 0 0 0 16 39 52 74 87 94 94 94 100 100 100 100 100 100 100 100 100 100 100 100 100 100 100 100 100 100 100 97 97 94 94 87 84 77 77 74
0 0 0 0 0 0 0 0 0 0 0 0 0 3 45 77 77 87 100 97 94 94 100 100 100 100 100 100 100 100 100 100 100 100 100 100 100 100 100 97 97 90 90 87 81 77 81 77 61
0 0 0 0 0 0 0 0 0 0 0 0 0 19 48 71 68 77 94 97 97 97 100 100 100 97 97 97 100 100 100 100 100 100 100 100 100 100 100 97 94 87 87 84 84 74 81 71 71
0 0 0 0 0 0 0 0 0 0 0 0 3 23 42 58 68 77 94 97 100 100 97 94 90 90 94 97 100 100 100 100 100 100 100 100 100 97 94 94 100 90 94 90 94 94 87 58 48
0 0 0 0 0 0 0 0 0 0 0 0 0 13 23 45 55 71 84 90 100 100 97 87 81 90 84 84 97 97 90 100 100 97 100 97 100 94 87 90 94 97 94 77 94 87 55 35 45
0 0 0 0 0 0 0 0 0 0 0 0 0 6 16 26 45 58 81 90 94 100 100 94 87 84 90 90 90 90 90 100 87 97 94 94 97 94 90 94 81 87 77 87 81 65 48 61 61
0 0 0 0 0 0 0 0 0 0 0 0 0 3 10 16 23 55 74 90 90 84 90 90 90 90 90 90 84 84 90 84 77 87 87 87 94 90 94 90 81 84 74 90 94 77 74 61 61
0 0 0 0 0 0 0 0 0 0 3 0 0 3 10 16 19 42 61 77 84 87 94 90 84 84 84 84 81 84 81 84 84 84 87 84 81 90 84 90 90 94 94 84 97 94 100 94 77
0 0 0 0 0 0 0 0 0 0 6 10 3 10 19 19 26 39 58 71 77 84 87 90 81 81 81 84 81 74 84 81 87 77 74 74 68 74 81 81 84 87 97 100 100 97 94 94 81
0 0 0 0 0 0 0 0 0 0 3 13 6 6 10 13 19 35 48 65 71 74 84 77 81 87 87 84 87 84 84 84 81 77 71 61 61 61 71 77 81 87 90 94 90 87 84 84 81
0 0 0 0 0 0 0 0 3 6 6 10 6 3 6 13 26 42 48 58 61 65 74 77 74 77 77 84 77 84 84 87 77 74 61 61 58 61 74 74 74 77 81 77 74 81 77 77 74
0 0 0 0 0 0 0 3 6 10 10 16 10 10 6 23 32 42 58 55 71 65 71 71 74 77 71 81 84 84 81 81 71 61 61 61 61 65 71 71 71 68 71 68 71 71 71 61 48
0 0 0 0 0 0 0 6 3 6 6 10 10 16 23 29 35 35 48 61 68 71 65 68 74 71 71 71 77 74 71 48 55 52 55 55 58 52 55 61 61 65 61 58 45 48 45 45 45
0 0 0 0 0 0 0 3 3 3 6 10 16 19 26 35 35 35 42 45 61 58 61 65 71 65 58 58 65 68 48 48 35 32 35 42 45 45 45 45 48 52 48 58 52 52 45 29 23
0 0 0 0 0 0 0 3 0 3 10 16 16 23 19 35 32 29 32 42 45 48 55 55 52 55 55 48 45 45 42 32 26 26 29 29 29 29 32 26 26 29 39 35 42 29 26 13 13
0 0 0 0 0 0 0 0 3 3 10 13 13 19 23 26 23 26 23 35 42 48 45 42 52 55 55 45 45 42 35 23 19 23 19 16 16 16 16 10 10 13 13 19 10 16 16 10 10
0 0 0 0 0 0 0 0 0 6 6 6 13 23 23 23 32 35 32 32 35 39 42 39 42 48 48 61 52 39 26 16 13 10 10 10 13 13 13 6 6 6 6 6 10 13 10 10 10
0 0 0 0 0 0 0 0 0 0 6 10 13 19 23 19 32 35 39 42 35 39 39 35 35 32 32 42 39 29 19 10 6 3 3 6 6 10 6 6 6 6 6 6 6 6 3 6 3
0 0 0 0 0 0 0 0 0 6 10 6 16 19 23 29 29 32 35 35 39 39 39 39 32 29 35 26 26 26 16 6 3 3 3 6 6 6 6 6 6 6 6 6 6 3 3 3 3
0 0 0 0 0 0 0 0 3 13 13 19 13 19 23 26 29 23 29 26 26 26 29 23 29 23 19 23 16 16 10 6 3 3 6 6 3 3 3 3 3 3 0 0 0 3 0 0 0
0 0 0 0 0 0 0 0 0 10 16 10 10 23 23 26 19 13 19 16 16 16 16 16 16 13 19 16 10 6 3 0 0 0 3 0 0 0 0 0 0 0 0 0 0 0 0 0 0
0 0 0 0 0 0 0 0 0 0 13 10 13 16 19 13 13 13 10 6 6 10 13 13 13 13 3 6 0 0 0 0 0 0 0 0 0 0 0 0 0 0 0 0 0 0 0 0 0
0 0 0 0 0 0 0 0 3 3 10 10 10 16 13 13 13 6 3 3 3 3 3 10 6 6 3 0 0 0 0 0 0 0 0 0 0 0 0 0 0 0 0 0 0 0 0 0 0
0 0 0 0 0 0 0 0 3 3 6 3 6 10 10 10 3 3 3 3 3 0 0 3 3 3 0 0 0 0 0 0 0 0 0 0 0 0 0 0 0 0 0 0 0 0 0 0 0

GEFSSGP_con_cape1000_090.txt.gz
Probability
0 0 0 0 0 0 0 0 0 0 0 0 0 6 16 10 0 10 32 55 81 97 100 100 100 100 100 100 100 100 100 100 100 100 100 100 100 100 100 100 100 100 100 100 100 100 100 100 100
0 0 0 0 0 0 0 0 0 0 0 0 6 32 42 48 61 45 52 74 84 97 100 100 100 100 100 100 100 100 100 100 100 100 100 100 100 100 100 100 100 100 100 100 100 100 100 100 100
0 0 0 0 0 0 0 0 0 0 0 3 13 19 35 61 81 68 65 87 94 100 100 100 100 100 100 100 100 100 100 100 100 100 100 100 100 100 100 100 100 100 100 100 100 100 100 100 97
0 0 0 0 0 0 0 0 0 0 0 6 13 13 32 58 84 84 87 97 97 100 100 100 100 100 100 100 100 100 100 100 100 100 100 100 100 100 100 100 100 100 100 100 100 100 100 100 97
0 0 0 0 0 0 0 0 0 0 0 13 13 16 35 74 94 90 94 94 100 100 100 100 100 100 100 100 100 100 100 100 100 100 100 100 100 100 100 100 100 100 100 100 97 97 97 97 94
0 0 0 0 0 0 0 0 0 0 0 0 6 13 29 65 81 90 94 97 100 100 100 100 100 100 100 100 100 100 100 100 100 100 100 100 100 100 100 100 100 100 97 97 97 97 97 94 94
0 0 0 0 0 0 0 0 0 0 0 0 10 13 35 58 71 77 87 97 100 100 100 100 100 100 100 100 100 100 100 100 100 100 100 100 100 100 100 100 100 97 97 94 94 90 94 94 84
0 0 0 0 0 0 0 0 0 0 0 6 13 23 35 52 58 77 87 97 100 100 100 100 100 100 100 100 100 100 100 100 100 100 100 100 100 100 100 100 100 97 97 94 94 94 94 90 77
0 0 0 0 0 0 0 0 0 0 3 13 16 23 42 42 55 87 97 97 94 97 100 100 100 100 100 100 100 100 100 100 100 100 100 100 100 100 100 97 97 97 94 94 94 90 94 90 90
0 0 0 0 0 0 0 0 0 0 10 16 23 42 48 42 61 81 90 90 90 94 97 97 97 100 100 100 97 97 97 97 97 100 100 100 97 90 90 94 97 97 97 90 94 94 90 84 32
0 0 0 0 0 0 0 0 0 0 10 13 29 42 45 48 58 55 68 74 81 84 90 90 90 90 90 90 94 94 94 97 94 97 97 90 77 81 74 77 84 84 81 84 84 94 74 39 6
0 0 0 0 0 0 0 0 0 0 6 19 26 29 35 39 42 65 65 65 71 81 71 65 71 74 77 84 87 84 87 87 84 87 90 77 61 61 42 58 68 65 52 45 48 42 29 13 6
0 0 0 0 0 0 0 0 0 3 13 16 16 26 26 35 39 42 58 58 68 71 65 58 55 58 58 58 74 77 77 81 74 77 84 65 48 45 32 39 39 39 26 23 16 10 13 6 0
0 0 0 0 0 0 0 0 0 6 6 16 19 19 29 32 39 48 58 65 58 58 55 45 45 45 42 52 61 55 58 68 58 65 65 55 29 26 26 29 23 23 16 13 6 6 0 0 0
0 0 0 0 0 0 0 0 0 6 6 6 13 16 23 26 35 42 52 55 61 61 45 35 35 35 39 52 48 48 42 42 52 48 55 35 23 23 23 26 26 6 6 6 6 3 0 0 0
0 0 0 0 0 0 0 3 6 3 10 10 10 13 16 13 10 26 39 42 48 48 32 39 29 29 35 48 45 26 29 29 29 26 35 35 23 13 13 16 13 6 3 3 3 0 0 0 0
0 0 0 0 0 0 0 3 6 6 6 6 10 3 13 26 29 35 32 39 32 35 29 26 26 16 29 32 32 13 19 19 19 23 26 32 23 16 13 10 3 3 3 3 3 0 0 0 0
0 0 0 0 0 0 0 6 6 3 6 6 10 23 16 16 23 19 29 29 29 26 26 26 19 19 26 35 23 13 16 23 19 19 16 26 29 26 13 6 13 3 3 0 0 0 0 0 0
0 0 0 0 0 3 3 3 6 3 0 6 19 19 19 19 23 23 23 23 19 19 19 19 16 19 16 19 16 16 16 16 10 3 6 13 23 26 16 10 6 3 3 0 0 0 0 0 0
0 0 0 0 0 3 3 6 6 3 3 6 13 13 13 23 16 23 19 13 13 13 16 16 19 16 19 19 13 13 10 6 0 3 6 3 3 6 19 10 6 3 0 0 0 0 0 0 0
0 0 0 0 3 3 3 3 3 10 13 10 3 10 10 13 13 16 13 6 3 3 10 13 19 19 19 19 10 6 3 3 3 0 6 6 3 6 6 6 3 0 0 0 0 0 0 0 0
0 0 0 0 0 0 0 0 3 6 6 3 6 3 10 10 16 19 19 3 3 6 6 10 10 13 16 16 10 6 3 3 3 0 0 0 0 3 0 6 3 0 0 0 0 0 0 0 0
0 0 0 0 0 0 0 0 0 0 0 3 3 6 3 6 10 13 13 10 10 6 6 6 10 6 10 13 10 3 3 3 0 0 0 0 3 3 3 3 3 0 0 0 0 0 0 0 0
0 0 0 0 0 0 0 0 0 0 0 0 3 3 3 0 6 10 10 6 6 10 6 3 6 3 3 3 0 3 3 0 0 0 3 3 3 3 3 3 3 3 3 0 0 0 0 0 0
0 0 0 0 0 0 0 0 0 0 0 0 3 3 3 3 3 6 6 6 6 10 10 6 6 3 3 6 0 3 0 0 0 0 3 3 3 0 0 0 0 0 0 0 0 0 0 0 0
0 0 0 0 0 0 0 0 0 0 0 3 3 3 3 3 3 3 3 3 6 6 3 6 6 3 0 0 0 3 0 0 0 0 0 0 0 0 0 0 0 0 0 0 0 0 0 0 0
0 0 0 0 0 0 0 0 0 0 0 0 3 3 3 3 3 3 3 3 3 3 3 6 3 0 0 0 0 0 0 0 0 0 0 0 0 0 0 0 0 0 0 0 0 0 0 0 0
0 0 0 0 0 0 0 0 0 0 0 0 0 3 3 3 3 3 3 3 3 3 3 3 0 3 3 0 0 0 0 0 0 0 0 0 0 0 0 0 0 0 0 0 0 0 0 0 0
0 0 0 0 0 0 0 0 0 0 0 0 0 0 3 3 3 3 3 3 3 3 3 0 3 0 0 0 0 0 0 0 0 0 0 0 0 0 0 0 0 0 0 0 0 0 0 0 0
0 0 0 0 0 0 0 0 0 0 0 0 0 0 0 0 3 0 0 0 0 0 0 0 0 0 0 0 0 0 0 0 0 0 0 0 0 0 0 0 0 0 0 0 0 0 0 0 0

GEFSSGP_con_cape1000_096.txt.gz
Probability
0 0 0 0 0 0 0 0 0 0 0 0 0 6 3 6 0 0 3 52 81 100 100 100 100 100 100 100 100 100 100 100 100 100 100 100 100 100 100 100 100 100 100 100 100 100 100 100 100
0 0 0 0 0 0 0 0 0 0 0 0 3 13 23 23 13 39 55 84 94 100 100 100 100 100 100 100 100 100 100 100 100 100 100 100 100 100 100 100 100 100 100 100 100 100 100 100 100
0 0 0 0 0 0 0 0 0 0 0 0 6 23 42 52 65 55 65 94 97 100 100 100 100 100 100 100 100 100 100 100 100 100 100 100 100 100 100 100 100 100 100 100 100 100 100 100 100
0 0 0 0 0 0 0 0 0 0 0 0 13 39 52 65 74 68 74 97 100 100 100 100 100 100 100 100 100 100 100 100 100 100 100 100 100 100 100 100 100 100 100 100 100 100 100 100 94
0 0 0 0 0 0 0 0 0 0 0 0 16 42 45 71 77 77 94 97 100 100 100 100 100 100 100 100 100 100 100 100 100 100 100 100 100 100 100 100 100 100 100 100 100 100 100 94 94
0 0 0 0 0 0 0 0 0 0 0 0 10 39 55 65 90 90 94 97 100 100 100 100 100 100 100 100 100 100 100 100 100 100 100 100 100 100 100 100 100 100 100 100 100 97 94 94 94
0 0 0 0 0 0 0 0 0 0 0 3 13 35 58 71 94 94 97 100 100 100 100 100 100 100 100 100 100 100 100 100 100 100 100 100 100 100 100 100 100 100 100 97 97 94 94 94 94
0 0 0 0 0 0 0 0 0 0 0 6 19 45 58 65 87 94 94 100 100 100 97 97 97 97 97 100 100 100 100 100 100 100 100 100 100 100 100 100 100 100 97 94 90 94 94 94 87
0 0 0 0 0 0 0 0 0 0 3 6 16 35 52 81 84 97 100 100 97 97 97 97 97 97 97 97 100 100 100 100 100 100 100 100 100 100 100 100 100 97 97 94 94 94 90 97 87
0 0 0 0 0 0 0 0 0 3 6 16 32 55 71 81 84 90 97 100 97 97 94 97 97 97 97 97 94 94 97 97 97 97 100 100 100 100 100 100 100 97 97 94 94 94 97 77 48
0 0 0 0 0 0 0 0 0 6 6 13 26 55 74 77 87 87 97 94 97 94 87 87 87 87 87 87 94 94 94 94 94 94 100 94 90 94 94 87 87 90 94 84 87 87 77 52 39
0 0 0 0 0 0 0 0 6 13 13 19 19 55 71 71 71 77 87 87 84 81 81 81 84 84 84 84 87 90 90 94 94 94 97 90 87 84 81 81 81 77 74 58 61 58 39 29 23
0 0 0 0 0 0 0 0 13 16 19 23 23 52 55 65 65 68 71 71 74 77 74 74 74 81 84 81 81 77 81 84 90 87 94 87 84 81 71 65 65 65 52 48 45 35 29 29 13
0 0 0 0 0 0 0 3 10 19 13 16 19 39 39 48 48 55 58 68 68 68 71 71 68 65 65 61 68 71 68 71 71 74 84 81 71 61 61 48 55 45 42 29 26 23 23 19 6
0 0 0 0 0 0 0 6 10 16 23 19 23 26 29 35 39 48 52 52 55 65 71 68 65 55 58 58 58 55 52 61 65 58 61 58 55 48 42 39 32 35 32 19 23 19 13 6 0
0 0 0 0 0 0 0 3 10 13 23 26 16 19 16 23 26 29 39 45 55 42 52 52 55 52 48 48 55 45 45 42 45 45 48 52 52 35 23 19 23 26 19 19 16 13 6 0 0
0 0 0 0 0 0 3 3 6 6 16 13 16 23 26 29 16 19 26 32 29 35 42 42 42 45 45 35 32 32 29 32 29 29 32 42 39 32 19 16 16 10 10 13 13 6 3 0 0
0 0 0 0 0 3 3 3 6 3 6 10 13 19 23 23 16 16 19 29 32 35 29 32 29 26 19 13 16 19 19 16 13 13 16 13 19 26 23 19 10 6 3 3 3 3 3 0 0
0 0 0 0 0 0 0 0 6 10 13 16 19 16 13 10 13 10 13 19 26 23 19 19 19 16 13 6 16 19 16 19 16 10 6 3 6 10 10 6 0 3 3 3 3 3 3 0 0
0 0 0 0 3 3 0 6 6 6 6 10 10 13 13 13 10 6 6 10 16 13 19 10 13 13 10 10 6 6 3 3 10 6 0 0 0 3 3 0 0 0 3 3 3 3 3 0 0
0 0 0 0 0 0 0 3 6 3 0 3 0 0 6 10 6 6 10 6 6 10 6 10 6 10 10 3 6 3 0 0 6 0 3 0 0 0 0 0 0 0 0 3 3 0 0 0 0
0 0 0 0 0 0 0 0 0 0 0 0 0 0 0 3 3 6 6 3 3 6 6 6 3 3 10 3 6 6 6 6 3 3 0 0 0 0 0 0 0 0 0 0 0 0 0 0 0
0 0 0 0 0 0 0 0 0 0 0 0 0 0 0 0 3 0 3 6 3 3 3 6 6 3 3 3 6 6 6 3 3 0 0 0 0 0 0 0 0 0 0 0 0 0 0 0 0
0 0 0 0 0 0 0 0 0 0 0 0 0 0 0 3 6 0 3 3 3 3 6 3 3 3 3 0 3 6 6 0 0 0 0 0 0 0 0 0 0 0 0 0 0 0 0 0 0
0 0 0 0 0 0 0 0 0 0 0 0 0 0 3 0 0 6 3 3 3 3 0 3 3 3 3 0 0 3 6 3 0 0 0 0 0 0 0 0 0 0 0 0 0 0 0 0 0
0 0 0 0 0 0 0 0 0 0 0 0 0 0 0 0 0 0 0 0 0 0 0 3 3 3 0 0 0 0 0 0 0 0 0 0 0 0 0 0 0 0 0 0 0 0 0 0 0
0 0 0 0 0 0 0 0 0 0 0 0 0 0 0 0 0 0 0 0 0 0 0 0 3 3 0 0 0 0 0 0 0 0 0 0 0 0 0 0 0 0 0 0 0 0 0 0 0
0 0 0 0 0 0 0 0 0 0 0 0 0 0 0 0 0 0 0 0 0 3 3 3 3 3 0 0 0 0 0 0 0 0 0 0 0 0 0 0 0 0 0 0 0 0 0 0 0
0 0 0 0 0 0 0 0 0 0 0 0 0 0 0 0 0 0 0 3 0 3 3 3 3 3 0 0 0 0 0 0 0 0 0 0 0 0 0 0 0 0 0 0 0 0 0 0 0
0 0 0 0 0 0 0 0 0 0 0 0 0 0 0 0 0 0 0 0 0 0 3 3 3 3 0 0 0 0 0 0 0 0 0 0 0 0 0 0 0 0 0 0 0 0 0 0 0

GEFSSGP_con_cape1000_102.txt.gz
Probability
0 0 0 0 0 0 0 0 0 0 0 0 0 0 0 6 6 39 97 94 94 97 97 100 100 100 100 100 100 100 100 100 100 100 100 100 100 100 100 100 100 100 100 100 100 100 100 100 100
0 0 0 0 0 0 0 0 0 0 0 0 0 10 10 19 58 90 94 97 97 94 90 87 100 100 100 100 100 100 100 100 100 100 100 100 100 100 100 100 100 100 100 100 100 100 100 100 100
0 0 0 0 0 0 0 0 0 0 0 0 10 16 29 55 81 94 97 97 97 90 77 100 100 100 100 100 100 100 100 100 100 100 100 100 100 100 100 100 100 100 100 100 100 100 100 100 100
0 0 0 0 0 0 0 0 0 0 0 0 6 19 58 81 94 97 97 97 94 87 87 100 100 100 100 100 100 100 100 100 100 100 100 100 100 100 100 100 100 100 100 100 100 100 100 100 100
0 0 0 0 0 0 0 0 0 0 0 3 3 26 77 94 100 100 100 97 94 81 81 100 100 100 100 100 100 100 100 100 100 100 100 100 100 100 100 100 100 100 100 100 100 100 97 94 94
0 0 0 0 0 0 0 0 0 0 0 6 10 32 74 97 100 100 100 100 94 90 94 100 100 100 100 100 100 100 100 100 100 100 100 100 100 100 100 100 100 100 100 100 100 97 94 94 97
0 0 0 0 0 0 0 0 0 0 3 10 13 35 77 97 100 100 100 100 97 90 94 100 97 100 100 100 100 100 100 100 100 100 100 100 100 100 100 100 100 100 100 100 100 94 94 90 94
0 0 0 0 0 0 0 0 0 0 6 19 29 39 77 100 100 100 100 100 100 97 94 100 100 97 100 100 100 100 100 100 100 100 100 100 100 100 100 100 100 100 100 97 94 94 94 87 90
0 0 0 0 0 0 0 0 0 3 13 29 39 61 87 100 100 100 100 100 100 100 100 100 100 100 100 97 100 100 100 100 100 100 100 100 100 100 100 100 100 100 97 94 94 94 94 84 90
0 0 0 0 0 0 0 0 0 13 16 29 45 74 90 97 97 97 97 100 100 100 100 100 97 100 100 100 100 100 100 100 100 100 100 100 100 100 100 100 100 100 94 94 90 90 84 81 87
0 0 0 0 0 0 0 3 0 10 26 32 42 68 90 90 90 97 94 94 94 100 97 94 97 97 97 97 97 97 97 97 100 100 100 100 100 100 100 100 100 100 94 90 90 87 71 61 65
0 0 0 0 0 0 3 3 10 19 26 35 39 52 81 90 81 84 84 81 87 97 94 90 97 97 97 97 94 97 97 94 94 94 94 94 97 94 94 97 94 94 94 90 90 94 74 61 55
0 0 0 0 0 0 3 3 16 26 26 29 35 39 65 68 74 74 74 74 74 77 84 87 87 87 87 97 97 94 90 90 90 90 90 90 90 87 94 94 97 84 84 90 97 87 87 77 68
0 0 0 0 0 0 0 6 16 26 26 32 32 29 52 68 68 65 68 74 77 77 77 81 81 84 87 87 90 90 90 90 90 90 90 87 84 87 90 94 97 87 81 84 84 84 87 84 74
0 0 0 0 0 0 3 6 19 26 26 26 32 39 32 45 58 61 65 68 71 74 77 77 77 81 84 77 81 81 84 87 87 84 81 84 84 84 90 87 90 94 90 90 90 90 87 81 74
0 0 0 0 0 0 0 3 23 26 29 29 32 35 32 45 48 52 58 65 65 65 68 68 74 71 74 71 77 74 77 81 84 81 77 84 87 84 87 87 87 90 87 94 94 90 84 71 71
0 0 0 0 0 0 0 3 23 29 26 23 29 35 32 35 42 45 45 42 55 65 68 65 61 65 68 71 71 74 77 77 81 77 74 77 81 81 84 84 87 84 84 90 84 87 81 74 58
0 0 0 0 0 0 0 10 16 29 19 23 23 23 26 35 32 35 39 39 42 45 48 61 65 61 68 68 71 74 74 77 77 81 77 71 74 74 74 65 71 68 68 71 68 65 61 52 42
0 0 0 0 3 0 0 16 16 29 29 32 35 32 26 23 32 35 39 39 39 42 42 45 48 58 58 68 68 68 68 74 74 77 68 68 68 71 68 55 65 58 58 65 61 52 45 39 35
0 0 0 3 6 6 10 19 16 29 26 45 35 32 32 32 32 35 35 39 32 35 39 39 39 42 48 58 61 61 61 61 74 65 61 55 52 55 48 61 58 55 58 52 52 42 39 35 29
0 0 0 0 3 6 6 10 13 19 23 26 26 29 29 26 26 26 29 35 35 39 35 35 32 42 42 45 52 52 52 58 61 58 42 42 39 39 45 42 45 45 39 39 32 32 32 23 23
0 0 0 0 0 0 3 0 13 19 26 16 13 26 19 26 26 19 19 23 19 19 23 26 26 26 32 32 39 45 48 52 52 48 42 42 26 29 29 35 35 35 26 32 23 26 26 26 10
0 0 0 0 0 0 0 0 6 19 23 23 10 10 16 16 19 16 16 23 16 16 19 19 29 29 32 35 35 39 42 42 32 42 42 32 19 16 13 19 23 26 26 23 19 23 23 23 16
0 0 0 0 0 0 0 0 0 10 13 19 23 6 13 10 6 6 13 13 16 16 16 16 19 23 26 35 39 42 42 35 29 32 35 29 16 13 13 10 10 16 13 13 16 16 16 16 16
0 0 0 0 0 0 0 0 0 0 3 10 19 6 3 6 3 3 10 13 13 16 13 13 16 19 23 26 35 39 32 32 39 35 26 26 10 10 10 6 10 6 6 3 3 6 6 10 13
0 0 0 0 0 0 0 0 0 6 6 6 13 10 6 3 0 0 3 6 6 10 10 13 16 16 16 16 23 19 26 23 19 19 16 16 13 10 6 6 6 6 3 3 3 3 3 3 3
0 0 0 0 0 0 0 0 0 0 0 6 13 10 6 3 0 0 0 0 3 6 6 10 10 10 16 13 16 16 13 10 6 10 6 6 6 6 3 3 3 3 3 3 3 3 3 3 0
0 0 0 0 0 0 0 0 0 6 10 6 3 10 3 3 0 0 0 0 0 3 6 10 10 10 13 13 13 6 10 6 6 6 6 6 6 3 3 3 3 3 3 3 3 3 3 0 0
0 0 0 0 0 0 0 0 0 0 3 10 6 0 3 0 0 0 0 0 0 3 3 3 10 10 6 6 3 0 3 3 3 0 3 0 0 0 0 3 3 3 3 3 3 3 3 3 0
0 0 0 0 0 0 0 0 0 0 3 3 3 0 3 0 0 0 0 0 0 0 3 3 6 6 3 0 0 0 0 0 0 0 0 0 0 0 0 0 0 3 3 3 3 3 0 0 0

GEFSSGP_con_cape1000_108.txt.gz
Probability
0 0 0 0 0 0 0 0 0 0 0 0 0 0 6 23 48 68 81 87 90 100 100 100 100 100 100 100 100 100 100 100 100 100 100 100 100 100 100 100 100 100 100 100 100 100 100 100 100
0 0 0 0 0 0 0 0 0 0 0 0 0 0 19 39 61 77 94 90 94 90 100 100 100 100 100 100 100 100 100 100 100 100 100 100 100 100 100 100 100 100 100 100 100 100 100 100 100
0 0 0 0 0 0 0 0 0 0 0 0 0 13 32 48 71 90 100 90 90 87 100 100 100 100 100 100 100 100 100 100 100 100 100 100 100 100 100 100 100 100 100 100 100 100 100 100 100
0 0 0 0 0 0 0 0 0 0 0 0 6 32 61 65 77 94 100 87 81 87 100 100 100 100 100 100 100 100 100 100 100 100 100 100 100 100 100 100 100 100 100 100 100 100 100 100 100
0 0 0 0 0 0 0 0 0 0 0 0 16 52 84 77 84 94 97 87 84 90 100 100 100 100 100 100 100 100 100 100 100 100 100 100 100 100 100 100 100 100 100 100 100 100 97 97 94
0 0 0 0 0 0 0 0 0 0 0 3 13 48 84 81 87 94 90 87 87 90 100 100 100 100 100 100 100 100 100 100 100 100 100 100 100 100 100 100 100 100 100 100 97 97 94 94 94
0 0 0 0 0 0 0 0 0 0 0 0 16 42 71 77 81 94 90 84 77 87 97 100 100 100 100 100 100 100 100 100 100 100 100 100 100 100 100 100 100 100 100 100 97 94 94 94 94
0 0 0 0 0 0 0 0 0 0 3 13 13 42 74 84 84 94 90 87 84 81 84 94 94 97 100 100 100 100 100 100 100 100 100 100 100 100 100 100 100 100 100 100 97 94 94 90 94
0 0 0 0 0 0 0 0 3 6 10 29 39 61 81 84 90 94 94 90 84 87 81 84 94 97 97 97 100 100 100 100 100 100 100 100 100 100 100 100 100 100 100 97 97 94 90 87 87
0 0 0 0 0 0 0 0 3 6 16 26 42 68 81 77 94 97 97 87 90 97 90 94 94 90 81 90 100 100 100 100 97 97 97 97 94 94 97 100 100 100 100 97 97 94 90 81 87
0 0 0 0 0 0 0 3 6 19 26 23 35 55 74 84 97 90 87 90 87 94 94 97 100 97 90 97 100 97 97 97 97 97 97 94 94 94 90 94 97 100 97 97 97 94 84 65 84
0 0 0 0 0 0 0 10 13 19 26 29 35 52 61 65 68 74 81 84 84 84 84 94 100 97 97 97 97 97 94 94 87 87 90 90 87 87 87 87 90 94 97 100 97 90 81 77 71
0 0 0 0 0 3 3 16 16 23 23 29 32 42 55 61 58 71 74 71 74 81 90 94 90 94 100 100 97 94 94 87 87 87 84 84 84 87 87 84 81 81 84 77 87 90 87 87 71
0 0 0 0 0 3 6 19 19 23 23 32 32 32 39 45 52 52 61 61 58 77 81 84 87 90 94 90 90 94 90 90 84 81 81 81 77 77 84 81 84 74 81 81 81 74 74 84 81
0 0 0 0 0 0 0 10 19 26 26 32 32 26 35 45 39 32 35 52 58 68 71 81 87 84 87 87 84 84 87 87 84 81 74 74 77 77 84 84 74 74 81 81 74 71 71 74 74
0 0 0 0 0 0 0 6 23 26 32 35 32 32 32 35 32 35 39 45 61 65 68 68 74 77 77 84 81 81 87 87 84 84 74 74 77 77 84 84 84 84 84 81 81 71 61 58 61
0 0 0 0 0 0 0 6 16 26 29 29 32 35 29 32 29 39 35 45 55 55 65 68 68 68 74 74 81 81 87 87 87 81 77 77 81 77 84 77 87 87 87 87 81 74 71 52 48
0 0 0 0 0 0 0 13 16 19 26 35 39 35 29 39 39 39 45 45 48 55 58 61 61 68 68 77 77 77 84 81 81 77 77 81 77 77 81 81 77 84 84 84 81 71 65 45 45
0 0 0 0 0 0 3 13 19 16 26 32 45 35 35 35 35 35 42 42 42 48 48 55 55 58 65 77 74 74 68 71 77 77 81 77 71 74 74 71 68 71 77 74 61 58 48 39 32
0 0 0 0 0 0 0 6 16 16 23 35 35 29 32 32 35 35 39 39 45 45 45 55 58 61 61 65 68 74 74 74 71 71 71 68 65 65 65 68 68 71 65 58 55 45 35 29 23
0 0 0 0 0 0 3 3 10 16 29 32 23 29 35 32 29 32 39 39 39 35 35 42 55 52 55 61 68 71 74 71 71 68 65 65 61 61 61 58 58 61 65 55 45 42 29 29 19
0 0 0 0 0 0 0 0 6 16 26 26 23 26 32 29 29 23 29 32 32 32 32 35 42 42 45 52 55 65 65 65 65 65 58 55 52 52 48 48 52 52 52 45 42 39 29 23 16
0 0 0 0 0 0 0 0 10 16 23 26 26 32 35 26 23 19 23 26 26 29 29 39 39 35 35 35 48 55 55 52 55 58 55 52 52 52 52 48 48 48 48 42 39 32 26 19 13
0 0 0 0 0 0 0 0 0 6 10 19 26 32 29 19 10 19 16 19 19 16 19 32 35 35 35 35 32 39 39 42 42 52 48 48 52 52 48 35 42 35 32 29 35 29 23 23 16
0 0 0 0 0 0 0 0 0 6 10 19 32 35 29 13 10 13 16 19 19 16 16 23 26 32 32 32 32 32 32 42 42 42 48 45 42 39 35 29 26 26 23 23 19 23 23 16 10
0 0 0 0 0 0 0 0 3 10 19 23 32 39 16 10 6 10 10 13 13 13 16 19 19 26 26 26 29 29 32 35 35 39 32 32 26 16 16 16 16 16 10 6 13 10 13 6 6
0 0 0 0 0 0 0 0 10 16 19 26 26 26 10 3 6 3 3 0 3 10 16 19 23 26 26 26 29 29 29 26 26 16 19 13 16 13 10 10 10 10 6 6 6 3 3 3 3
0 0 0 0 0 0 0 0 0 19 16 19 23 19 10 3 10 3 0 0 0 3 13 13 19 23 19 19 16 10 16 13 13 13 6 10 10 10 10 3 3 3 3 0 0 3 3 3 0
0 0 0 0 0 0 0 0 0 13 13 26 19 13 16 6 6 0 0 0 3 3 6 6 13 16 19 13 10 10 13 6 6 3 3 6 6 6 3 0 0 0 0 0 0 0 0 0 0
0 0 0 0 0 0 0 0 0 10 16 26 13 16 6 6 3 0 3 3 3 3 6 6 6 10 3 3 6 6 0 0 0 0 0 0 0 0 0 0 0 0 0 0 0 0 0 0 0

GEFSSGP_con_cape1000_114.txt.gz
Probability
0 0 0 0 0 0 0 0 0 0 0 3 6 23 29 32 13 39 29 71 97 100 100 100 100 100 100 100 100 100 100 100 100 100 100 100 100 100 100 100 100 100 100 100 100 100 100 100 100
0 0 0 0 0 0 0 0 0 0 3 10 26 42 45 77 77 87 65 90 100 100 100 100 100 100 100 100 100 100 100 100 100 100 100 100 100 100 100 100 100 100 100 100 100 100 100 100 100
0 0 0 0 0 0 0 0 0 0 3 16 32 52 55 77 77 81 81 100 100 100 100 100 100 100 100 100 100 100 100 100 100 100 100 100 100 100 100 100 100 100 100 100 100 100 100 100 100
0 0 0 0 0 0 0 0 3 3 3 19 42 58 61 68 81 74 94 94 94 100 100 100 100 100 100 100 100 100 100 100 100 100 100 100 100 100 100 100 100 100 100 100 100 100 100 100 100
0 0 0 0 0 0 0 0 0 0 6 35 52 65 68 71 77 68 81 87 97 97 97 100 100 100 100 100 100 100 100 100 100 100 100 100 100 100 100 100 100 100 100 100 100 100 100 100 100
0 0 0 0 0 0 0 3 3 3 10 29 52 61 55 61 68 71 81 84 94 97 97 97 100 100 100 100 100 100 100 100 100 100 100 100 100 100 100 100 100 100 100 100 97 97 100 100 97
0 0 0 0 0 0 0 3 6 6 6 16 39 45 52 61 52 65 81 87 90 97 97 97 97 100 100 100 100 100 100 100 100 100 100 100 100 100 100 100 100 100 100 97 97 97 97 97 94
0 0 0 0 0 0 3 3 10 6 10 26 45 52 55 45 65 71 68 74 77 87 94 94 94 97 97 100 100 100 100 100 100 100 100 100 100 100 97 97 100 100 100 97 97 97 97 90 90
0 0 0 0 0 0 3 6 10 16 32 42 45 48 52 48 58 65 68 68 71 74 81 87 90 94 97 97 100 100 100 100 97 97 97 97 97 97 97 97 97 97 97 97 97 97 97 90 84
0 0 0 0 0 3 6 13 16 16 26 45 45 52 48 39 42 45 45 48 61 74 74 77 77 90 94 100 97 97 97 90 90 90 90 87 87 81 94 94 97 94 94 90 87 90 90 84 68
0 0 0 0 0 6 3 19 19 23 23 32 42 45 42 39 29 35 29 35 45 48 61 58 71 71 84 90 87 87 87 90 87 90 87 77 65 61 61 71 84 84 87 81 84 87 74 65 42
0 0 0 0 0 3 16 13 13 16 23 35 48 45 39 39 32 32 29 29 26 26 32 42 48 55 55 74 77 77 84 84 81 81 81 68 65 61 58 68 65 61 55 45 52 52 42 29 23
0 0 0 0 0 10 16 16 23 26 23 35 42 42 45 39 29 23 26 23 23 29 29 39 26 35 48 58 65 68 68 65 65 68 61 61 61 55 58 52 52 48 35 39 35 32 26 19 19
0 0 0 0 3 10 16 16 16 23 29 35 35 45 35 32 23 19 19 26 26 26 29 29 29 35 42 35 48 61 61 61 61 58 58 61 52 48 58 52 39 42 32 32 32 32 23 23 16
0 0 0 0 3 3 10 13 19 29 19 26 29 29 29 19 10 19 16 16 16 16 23 26 32 32 32 42 48 55 58 48 48 52 52 61 52 48 45 48 35 29 26 26 23 26 19 16 16
0 0 0 0 0 0 3 6 23 26 19 19 23 19 10 13 10 10 10 3 13 13 13 16 29 35 32 35 42 42 52 48 45 42 45 52 48 55 42 35 32 29 29 23 16 19 13 16 13
0 0 0 0 0 0 6 13 19 23 23 16 13 23 19 13 13 10 6 6 10 13 16 10 29 29 35 39 45 52 48 42 45 45 48 48 45 45 39 35 29 29 16 16 19 16 13 6 10
0 0 0 0 0 0 10 13 16 32 19 16 13 19 19 16 16 16 13 13 10 10 10 23 29 32 35 39 45 52 52 45 48 48 48 48 45 39 32 32 29 26 23 13 13 16 10 10 6
0 0 0 0 0 6 6 16 23 35 19 19 29 29 29 16 13 16 19 19 19 19 16 16 23 23 32 32 35 39 48 52 45 45 48 45 39 39 32 32 29 26 23 16 10 10 10 3 0
0 0 0 0 3 3 16 16 23 29 26 26 29 35 32 19 16 6 13 16 13 16 19 23 23 19 23 32 35 42 48 42 45 42 45 42 39 39 29 29 29 26 16 13 10 10 6 6 0
0 0 0 0 3 6 10 13 26 29 32 23 32 26 23 16 13 10 13 13 6 6 13 16 13 19 23 29 32 39 35 26 29 29 32 35 35 35 32 26 23 26 13 10 6 6 6 6 6
0 0 0 0 0 0 0 0 16 29 26 19 16 16 16 13 10 10 10 10 6 6 3 13 16 16 19 19 19 29 32 26 23 19 16 29 32 29 26 19 16 16 6 10 10 6 6 6 6
0 0 0 0 0 0 0 0 3 16 16 19 10 19 19 16 16 13 16 10 3 10 13 10 16 13 13 13 19 19 19 16 10 10 10 13 16 19 16 16 19 13 6 6 3 0 6 6 6
0 0 0 0 0 0 0 0 0 6 13 16 16 13 16 13 10 6 0 0 0 0 3 3 6 10 13 16 13 13 16 13 13 16 13 10 6 3 3 10 10 10 6 6 0 0 0 0 0
0 0 0 0 0 0 0 0 0 3 6 13 16 6 3 3 3 0 0 0 3 0 0 0 0 6 6 6 10 10 10 6 6 6 6 6 0 0 0 6 6 3 3 3 0 0 0 0 0
0 0 0 0 0 0 0 0 0 0 6 10 10 0 0 0 0 3 3 3 0 0 0 0 3 3 3 3 3 6 6 6 3 6 3 0 0 0 3 3 3 3 3 3 0 0 0 0 0
0 0 0 0 0 0 0 0 0 3 6 0 0 0 0 0 0 0 0 0 0 0 0 0 0 0 3 3 3 3 3 3 3 0 0 0 0 0 0 3 3 0 0 0 0 0 0 0 0
0 0 0 0 0 0 0 0 0 0 6 0 0 0 0 0 0 0 0 0 0 0 0 0 0 0 3 3 3 3 3 3 0 0 0 0 0 0 0 0 0 0 0 0 0 0 0 0 0
0 0 0 0 0 0 0 0 0 0 0 0 0 0 0 0 0 0 0 0 0 0 0 0 3 3 3 3 3 3 0 0 0 0 0 0 0 0 0 0 0 0 0 0 0 0 0 0 0
0 0 0 0 0 0 0 0 0 0 0 0 0 0 0 0 0 0 0 0 0 0 3 3 3 3 3 3 3 0 0 0 0 0 0 0 0 0 0 0 0 0 0 0 0 0 0 0 0